www.pogodaiklimat.ru

Погода и климат >> Архив погоды >> Россия >> Приморский край >> Рудная Пристань


АРХИВ ПОГОДЫ в Рудной Пристани

Время (UTC), дата Ветер
(напр.,м/с)
 
Видим.   Явления Облачность Т
(С)
Тd
(С)
f
(%)
Тe
(С)
Тes
(С)
Комфортность P
(гПа)
Po
(гПа)
Тmin
(С)
Tmax
(С)
R
(мм)
R24
(мм)
S
(см)
09 9.09 З 2 20 км 3/3 600 м
[Cu hum]
+26.0 +10.7 38 +27 +27 жарко 1006.1 1002.3 +30.0
12 9.09 З 1 20 км 4/0
[Ci fib]
+20.0 +9.8 52 +22 +22 комфорт 1008.6 1004.8
15 9.09 З 2 20 км 3/0
[Ci fib]
+13.3 +11.3 88 +13 +13 1009.2 1005.3
18 9.09 З 2 20 км ясно +12.1 +10.7 91 +11 +11 1010.6 1006.6
21 9.09 З 1 20 км 8/3 600 м
[Sc Ac cast Ci sp]
+11.4 +10.7 95 +11 +11 1012.1 1008.1 +11.1
00 10.09 ЮЗ 3 20 км 4/3 600 м
[Sc Ac lent Ci fib]
+21.2 +6.5 38 +22 +26 комфорт 1013.0 1009.1
03 10.09 З 4 50 км 3/0
[Ac lent Ci sp]
+24.1 +5.4 30 +24 +30 комфорт 1013.2 1009.4
06 10.09 ЮВ 1 20 км 9/3 600 м
[Sc Ac lent Ci sp]
+22.2 +10.5 47 +24 +27 комфорт 1012.3 1008.5
09 10.09 штиль 0 20 км 9/8 600 м
[Cb cap Ac trans]
+17.6 +13.0 74 +18 +18 1013.7 1009.8 +25.3
12 10.09 СЗ 2 20 км 4/3 600 м
[Cb cap Ci fib]
+17.9 +9.5 58 +18 +18 1015.7 1011.7
15 10.09 З 2 20 км 8/4 600 м
[Cb cap Ci sp]
+16.6 +8.6 59 +17 +17 1016.2 1012.2
18 10.09 СЗ 3 20 км 10/4 600 м
[Cb cap Ci sp]
+16.4 +8.4 59 +16 +16 1015.7 1011.7
21 10.09 СЗ 3 20 км 10/8 600 м
[Cb cap Ci sp]
+15.7 +8.9 64 +15 +15 1016.1 1012.1 +14.3
00 11.09 З 2 20 км 9/9 600 м
[Cb cap]
+16.8 +11.4 70 +17 +18 1016.4 1012.5
03 11.09 ЮЗ 2 20 км 8/6 600 м
[Cb cap Ac trans]
+21.7 +9.5 46 +23 +27 комфорт 1014.6 1010.7
06 11.09 З 4-14
{14}
20 км 3/3 600 м
[Sc diur, vesp]
+21.5 +6.0 36 +22 +25 комфорт 1013.9 1010.0
09 11.09 З 5
{15}
20 км 1/1 600 м
[Sc]
+17.5 +6.3 48 +17 +17 1014.7 1010.7 +22.9
12 11.09 З 4
{10}
20 км 3/3 600 м
[Sc]
+15.2 +5.9 54 +14 +14 1016.4 1012.4
15 11.09 З 5
{11}
20 км 1/1 600 м
[Sc]
+14.9 +6.8 58 +14 +14 1016.2 1012.3
18 11.09 Ю 2
{12}
20 км ясно +14.5 +6.6 59 +14 +14 1016.6 1012.6
21 11.09 ЮЗ 1 50 км ясно +12.8 +6.9 67 +13 +13 1018.5 1014.5 +10.5
00 12.09 З 4 50 км ясно +17.8 +6.9 49 +18 +22 1018.3 1014.3
03 12.09 СЗ 1 50 км ясно +22.6 +5.6 33 +23 +37 комфорт 1017.7 1013.8
06 12.09 ЮВ 1 50 км ясно +19.1 +9.7 54 +21 +28 комфорт 1017.8 1013.9
09 12.09 штиль 0 50 км 4/0
[Ac lent Ci fib]
+15.2 +9.8 70 +15 +15 1018.1 1014.1 +23.4
12 12.09 З 1 50 км 3/0
[Ci fib]
+10.5 +9.0 90 +10 +10 1019.8 1015.8
15 12.09 СЗ 3 50 км ясно +11.3 +9.1 86 +9 +9 1018.9 1014.8
18 12.09 Ю 1 50 км 3/0
[Ac lent]
+7.9 +7.5 97 +7 +7 1018.2 1014.1
21 12.09 З 3 50 км 1/1 600 м
[Sc]
+7.0 +6.9 99 +4 +4 1018.8 1014.7 +7.0
00 13.09 ЮЗ 2 50 км ясно +17.2 +11.2 68 +18 +24 1019.2 1015.2
03 13.09 В 2 50 км 3/0
[Ci fib]
+17.9 +12.0 68 +18 +30 опасность
простуды
1017.6 1013.6
06 13.09 Ю 3 50 км 8/3 600 м
[Sc Ci]
+19.4 +11.0 58 +21 +24 комфорт 1016.4 1012.5
09 13.09 Ю 1
{10}
50 км 9/8 600 м
[Sc Ci fib]
+16.8 +12.3 75 +18 +18 1016.0 1012.0 +19.9
12 13.09 С 1 50 км 8/6 600 м
[Sc Ac trans]
+14.3 +12.6 90 +15 +15 1015.7 1011.8
15 13.09 СВ 1 50 км 9/3 600 м
[Sc Ac trans]
+13.6 +13.1 97 +14 +14 1013.9 1009.9
18 13.09 СВ 1 50 км 10/8 600 м
[Sc As trans]
+14.7 +14.0 96 +15 +15 1011.8 1007.8
21 13.09 З 1 20 км 10/8 600 м
[Cb cap As op]
+13.1 +12.9 99 +13 +13 1010.9 1006.9 +12.9
00 14.09 СЗ 1 10 км слаб. ливневой дождь 10/8 600 м
[Cb cap As op]
+14.8 +14.7 99 +15 +15 1011.0 1007.1 +12.6
03 14.09 З 2 10 км слаб. ливневой дождь 10/8 600 м
[Cb cap As op]
+15.3 +13.8 91 +15 +16 1010.1 1006.2
06 14.09 З 1 10 км слаб. ливневой дождь 10/8 600 м
[Cb cap As op]
+16.3 +15.1 93 +17 +17 1009.4 1005.5
09 14.09 штиль 0 20 км {ливн. осадки} 9/8 600 м
[Cb cap Ac cast]
+16.6 +16.0 96 +16 +16 1009.8 1005.9 +16.7 6
12 14.09 З 1 20 км {ливн. осадки} 3/3 600 м
[Sc diur, vesp]
+13.4 +12.9 97 +13 +13 1011.6 1007.7
15 14.09 З 2 20 км 3/3 600 м
[Sc]
+13.7 +9.3 75 +13 +13 1012.3 1008.3
18 14.09 З 2 20 км ясно +14.7 +6.9 59 +15 +15 1013.0 1009.0
21 14.09 З 3 50 км 6/3 600 м
[Sc Cc]
+13.9 +6.8 62 +13 +13 1014.5 1010.5 +10.0
00 15.09 СЗ 3 50 км 3/1 600 м
[Sc Ci fib]
+19.0 +7.6 48 +20 +24 1014.9 1011.0
03 15.09 ЮВ 2 50 км ясно +21.3 +5.6 36 +22 +34 комфорт 1014.0 1010.1
06 15.09 ЮВ 1 50 км ясно +20.9 +4.1 33 +23 +29 комфорт 1013.0 1009.1
09 15.09 штиль 0 50 км ясно +14.7 +8.1 65 +15 +15 1013.1 1009.1 +22.0
12 15.09 З 3 20 км 6/0
[Ac trans Ci fib]
+9.6 +8.1 90 +7 +7 1013.7 1009.7
15 15.09 З 3 20 км 8/0
[Ac trans Ci fib]
+8.4 +7.5 94 +6 +6 1012.9 1008.9
18 15.09 З 3 20 км 10/0
[Ac lent Ci]
+9.0 +7.6 91 +6 +6 1011.8 1007.7
21 15.09 З 2 20 км 10/4 600 м
[Sc As op]
+8.9 +7.7 92 +7 +7 1011.4 1007.4 +7.9
00 16.09 З 3 50 км 9/8 600 м
[Sc Ci fib]
+13.7 +9.6 76 +13 +14 1010.8 1006.8
03 16.09 В 2 50 км 3/1 600 м
[Sc Ci fib]
+19.4 +7.8 47 +21 +31 комфорт 1009.3 1005.4

 

Местоположение метеостанции Рудная Пристань (Приморский край, Россия): широта 44.37 долгота 135.80 высота над уровнем моря 34 м.

В архиве по умолчанию представлена погода в Рудной Пристани за последнюю неделю. Архивные данные за месяц целиком и за предыдущие месяцы, начиная с января 2011 года, Вы можете получить, выбрав интересующий диапазон дат из раскрывающегося списка и нажав кнопку "Ввод!".


*Определитесь, кто Вы:
робот инопланетянин человек

Внимание! Время в таблицах - всемирное. Для получения местного времени необходимо прибавить поправку, которая равна 10 ч.

Смотрите также архив погоды в соседних городах и на ближайших метеорологических станциях:

Погода в Богополе (Приморский край, Россия) (35 км)
Погода в Кавалерово (Приморский край, Россия) (65 км)
Погода в Ольге (Приморский край, Россия) (80 км)
Погода в Дальнегорске (Приморский край, Россия) (93 км)
Погода в Тернее (Приморский край, Россия) (94 км)
Погода в Мельничном (Приморский край, Россия) (122 км)
Погода в Лучегорске (Приморский край, Россия) (151 км)
Погода в Малой Кеме (Приморский край, Россия) (154 км)
Погода в Чугуевке (Приморский край, Россия) (161 км)
Погода в Малиново (Приморский край, Россия) (172 км)

Пояснения к столбцам:

Ветер - указаны скорость ветра в м/с - средняя за 10 мин, порывы в срок и между сроками (в фигурных скобках) и направление, откуда дует ветер: С - северный, СВ - северо-восточный, В - восточный, ЮВ - юго-восточный, Ю - южный, ЮЗ - юго-западный, З - западный, СЗ - северо-западный.
Видимость - горизонтальная дальность видимости в метрах или километрах. При видимости от 1 до 10 км при отсутствии осадков обычно наблюдается дымка, при ухудшении видимости до 1 км и менее - туман. В сухую погоду видимость может ухудшаться дымом, пылью или мглою.
Явления - указаны атмосферные явления, наблюдавшиеся в срок или в последний час перед сроком; фигурными скобками обозначены явления, наблюдавшиеся между сроками (за 1-3 часа до срока); квадратными скобками обозначены град или гололедные отложения с указанием их диаметра в мм.
Облачность - указаны через наклонную черту общая и нижняя облачность в баллах и высота нижней границы облаков в метрах; квадратными скобками обозначены формы облаков: Ci - перистые, Cs - перисто-слоистые, Cc - перисто-кучевые, Ac - высококучевые, As - высокослоистые, Sc - слоисто-кучевые, Ns - слоисто-дождевые, Cu - кучевые, Cb - кучево-дождевые. Подробнее классификацию облаков см. в Атласе облаков (PDF).
T - Температура воздуха - температура, измеренная на высоте 2 м над землей.
Td - Температура точки росы - температура, при понижении до которой содержащийся в воздухе водяной пар достигнет насыщения.
f - Относительная влажность воздуха - влажноcть воздуха, измеренная на высоте 2 м над землей.
Te - Эффективная температура - температура, которую ощущает одетый по сезону человек в тени. Характеристика душности погоды. При расчете учитывается влияние влажности воздуха и скорости ветра на теплоощущения человека.
Tes - Эффективная температура на солнце - температура, которую ощущает человек, с поправкой на солнечный нагрев. Характеристика знойности погоды. Зависит от высоты солнца над горизонтом, облачности и скорости ветра. Ночью, в пасмурную погоду, а также при ветре 12 м/с и более поправка равна нулю.
P - Атмосферное давление - приведенное к уровню моря атмосферное давление.
Po - Атмосферное давление - измеренное на уровне метеостанции атмосферное давление.
Tmin - Минимальная температура - минимум температуры воздуха на высоте 2 м над землей.
Tmax - Максимальная температура - максимум температуры воздуха на высоте 2 м над землей.
R - Количество осадков - Количество выпавших осадков за период времени, мм. При наведении курсора мыши на число - период времени, за который выпало указанное количество осадков.
R24 - Количество осадков - Количество выпавших осадков за 24 часа, мм.
S - Снежный покров - Высота снежного покрова, см. При наведении курсора мыши на число - состояние снежного покрова и степень покрытия местности в баллах.